TimePDT,TemperatureF,Dew PointF,Humidity,Sea Level PressureIn,VisibilityMPH,Wind Direction,Wind SpeedMPH,Gust SpeedMPH,PrecipitationIn,Events,Conditions,WindDirDegrees,DateUTC
12:54 AM,59.0,57.9,96,30.03,4.0,South,11.5,-,0.06,Rain,Rain,170,2012-10-28 07:54:00
1:54 AM,59.0,57.9,96,30.03,10.0,South,6.9,-,0.04,,Overcast,170,2012-10-28 08:54:00
2:06 AM,59.0,57.2,94,30.03,9.0,South,6.9,-,0.00,Rain,Light Rain,170,2012-10-28 09:06:00
2:54 AM,59.0,57.9,96,30.04,10.0,SSE,4.6,-,0.00,Rain,Light Rain,160,2012-10-28 09:54:00
3:30 AM,59.0,57.2,94,30.02,7.0,South,9.2,-,0.02,Rain,Light Rain,170,2012-10-28 10:30:00
3:54 AM,59.0,57.9,96,30.02,10.0,South,6.9,-,0.02,,Overcast,170,2012-10-28 10:54:00
4:45 AM,59.0,57.2,94,30.02,10.0,South,5.8,-,N/A,,Overcast,170,2012-10-28 11:45:00
4:54 AM,59.0,57.9,96,30.02,10.0,South,5.8,-,N/A,,Overcast,170,2012-10-28 11:54:00
5:54 AM,59.0,57.9,96,30.01,6.0,South,6.9,-,0.03,Rain,Rain,170,2012-10-28 12:54:00
6:33 AM,59.0,57.2,94,30.01,10.0,SSE,8.1,-,0.01,Rain,Light Rain,160,2012-10-28 13:33:00
6:54 AM,57.9,57.0,97,30.00,10.0,SSE,5.8,-,0.01,,Overcast,160,2012-10-28 13:54:00
7:54 AM,59.0,57.0,93,29.99,10.0,South,6.9,-,0.00,,Overcast,180,2012-10-28 14:54:00
8:54 AM,59.0,57.9,96,30.00,4.0,South,5.8,-,0.03,Rain,Light Rain,190,2012-10-28 15:54:00
9:27 AM,59.0,57.2,94,30.01,2.5,Calm,Calm,-,0.02,Rain,Light Rain,0,2012-10-28 16:27:00
9:40 AM,59.0,57.2,94,30.00,3.0,Calm,Calm,-,0.02,Rain,Light Rain,0,2012-10-28 16:40:00
9:54 AM,59.0,57.2,94,30.00,4.0,SSE,3.5,-,N/A,Rain,Light Rain,150,2012-10-28 16:54:00
10:54 AM,60.1,59.0,96,29.99,5.0,South,4.6,-,0.05,,Overcast,170,2012-10-28 17:54:00
11:43 AM,62.6,60.8,94,29.98,9.0,South,11.5,-,N/A,,Overcast,180,2012-10-28 18:43:00
11:54 AM,63.0,60.1,90,29.98,9.0,South,9.2,-,N/A,,Overcast,180,2012-10-28 18:54:00
12:54 PM,63.0,61.0,93,29.97,3.0,SSW,10.4,-,0.02,Rain,Light Rain,200,2012-10-28 19:54:00
1:54 PM,64.0,62.1,93,29.96,9.0,South,11.5,-,0.00,,Overcast,190,2012-10-28 20:54:00
2:37 PM,64.4,62.6,94,29.95,7.0,South,11.5,-,N/A,,Overcast,190,2012-10-28 21:37:00
2:54 PM,64.9,62.1,90,29.95,6.0,SSW,8.1,-,0.00,Rain,Light Rain,210,2012-10-28 21:54:00
3:32 PM,64.4,62.6,94,29.95,8.0,SSW,12.7,-,0.00,,Overcast,210,2012-10-28 22:32:00
3:54 PM,64.9,62.1,90,29.94,8.0,SSW,10.4,-,0.00,,Overcast,200,2012-10-28 22:54:00
4:47 PM,64.4,62.6,94,29.95,8.0,South,10.4,-,0.00,Rain,Light Rain,190,2012-10-28 23:47:00
4:54 PM,64.9,61.0,87,29.94,10.0,South,9.2,-,0.00,,Overcast,190,2012-10-28 23:54:00
5:46 PM,64.4,60.8,88,29.94,10.0,South,9.2,-,0.00,,Overcast,190,2012-10-29 00:46:00
5:54 PM,64.0,61.0,90,29.94,10.0,South,9.2,-,0.00,,Overcast,190,2012-10-29 00:54:00
6:04 PM,64.4,60.8,88,29.94,10.0,SSW,9.2,-,N/A,,Overcast,200,2012-10-29 01:04:00
6:51 PM,62.6,60.8,94,29.94,10.0,South,11.5,-,N/A,,Mostly Cloudy,190,2012-10-29 01:51:00
6:54 PM,63.0,60.1,90,29.94,10.0,South,11.5,-,N/A,,Mostly Cloudy,190,2012-10-29 01:54:00
7:54 PM,62.6,59.0,88,29.95,10.0,South,10.4,-,N/A,,Overcast,190,2012-10-29 02:54:00
8:54 PM,62.1,59.0,90,29.94,10.0,South,9.2,-,N/A,,Mostly Cloudy,180,2012-10-29 03:54:00
9:02 PM,62.6,59.0,88,29.94,10.0,South,9.2,-,N/A,,Overcast,180,2012-10-29 04:02:00
9:54 PM,62.1,59.0,90,29.94,10.0,South,4.6,-,N/A,,Overcast,180,2012-10-29 04:54:00
10:20 PM,62.6,59.0,88,29.95,10.0,South,6.9,-,N/A,,Overcast,190,2012-10-29 05:20:00
10:54 PM,63.0,57.9,84,29.95,10.0,South,9.2,-,N/A,,Overcast,180,2012-10-29 05:54:00
11:24 PM,62.6,57.2,82,29.96,10.0,SSW,12.7,-,N/A,,Mostly Cloudy,210,2012-10-29 06:24:00
11:54 PM,61.0,57.0,87,29.95,10.0,South,9.2,-,N/A,,Mostly Cloudy,190,2012-10-29 06:54:00